Race Results for…
2018 LAKETOWN DISTANCE FESTIVAL 5K*10K*10MILE RUN & WALK

December 29, 2018 Results presented by NEW ORLEANS RUNNING SYSTEMS INC and timed by Southern Timing and Race Results, LLC
Last Updated:
1/4/2019 8:56:31 PM
BENEFITING ROTARY CLUB OF KENNER
Stats

Leaderboards

Jump to a Leaderboard

5K

Male - Overall
Bib Name Gun Elapsed Chip Elapsed Pace City Age
1 412 DALE THOMAS 00:21:13 00:21:12 06:50 min/mile TAYLOR 55
Female - Overall
Bib Name Gun Elapsed Chip Elapsed Pace City Age
1 410 KATHRYN HALLER 00:22:51 00:22:47 07:20 min/mile GOLDEN 28

10K

Male - Overall
Bib Name Gun Elapsed Chip Elapsed Pace City Age
1 260 ALEXANDER WALLACH 00:35:20 00:35:20 05:41 min/mile KIRKWOOD 16
Female - Overall
Bib Name Gun Elapsed Chip Elapsed Pace City Age
1 216 KIMBERLY WIGGINS 00:53:06 00:52:59 08:32 min/mile PRAIRIEVILLE 50

10 MILE

Male - Overall
Bib Name Gun Elapsed Chip Elapsed Pace City Age
1 1 DAVID CHAIX 01:01:41 01:01:41 06:10 min/mile KENNER 35
Female - Overall
Bib Name Gun Elapsed Chip Elapsed Pace City Age
1 2 VICTORIA BRIGNAC 01:11:33 01:11:31 07:09 min/mile NEW ORLEANS 32

5K WALK

Male - Overall
Bib Name Gun Elapsed Chip Elapsed Pace City Age
1 348 ISAAC KNIGHTSHEAD 00:38:23 00:38:05 12:16 min/mile MARRERO 62
2 377 GARY SELLS 00:41:15 00:41:01 13:13 min/mile NEW ORLEANS 67

10 MILE WALK

Male - Overall
Bib Name Gun Elapsed Chip Elapsed Pace City Age
1 58 ERNEST COLEMAN 02:19:27 02:19:27 13:56 min/mile KENNER 56
2 101 BOB KLARE 02:19:28 02:19:28 13:56 min/mile RIVER RIDGE 54
Female - Overall
Bib Name Gun Elapsed Chip Elapsed Pace City Age
1 7 PAT DRISCOLL 02:15:21 02:15:21 13:32 min/mile METAIRIE 65

Overall Results

Tip: Swipe the results table to view more.
98 entrants …
5K Results
Div Place Bib Name Gender Age City State Division Age Place Gun Elapsed Chip Elapsed Pace
1 412 DALE THOMAS M 55 TAYLOR AL 5K O/A 00:21:13 00:21:12 06:50 min/mile
2 407 CHARLES TALLEY M 29 GOLDEN CO 5K 1 00:21:35 00:21:32 06:56 min/mile
3 417 TOMMY GUIDROZ M 42 GRETNA LA 5K 1 00:21:49 00:21:47 07:01 min/mile
4 382 IAN TABLAN M 16 HARVEY LA 5K 1 00:22:11 00:22:07 07:07 min/mile
5 405 RAYLAN ALLEMAN M 50 THIBODAUX LA 5K 1 00:22:11 00:22:10 07:08 min/mile
6 319 DOUGLAS ARENA M 55 CHALMETTE LA 5K 2 00:22:21 00:22:20 07:11 min/mile
7 410 KATHRYN HALLER F 28 GOLDEN CO 5K O/A 00:22:51 00:22:47 07:20 min/mile
8 406 PATRICK ALLEMAN M 14 THIBODAUX LA 5K 1 00:23:10 00:23:10 07:28 min/mile
9 349 NICHOLAS KOHRS M 34 NEW ORLEANS LA 5K 1 00:23:19 00:23:14 07:29 min/mile
10 419 HENRY GUSTE M 42 YYYNY AB 5K 2 00:23:57 00:23:27 07:33 min/mile
11 403 KREKEL ECKLAND M 52 PONCHATOULA LA 5K 3 00:24:38 00:24:33 07:54 min/mile
12 429 CHRIS GRIMWOOD M 16 NEW ORLEANS LA 5K 2 00:25:41 00:24:57 08:02 min/mile
13 362 KYLE MCCLURE M 35 NEW ORLEANS LA 5K 2 00:25:19 00:25:13 08:07 min/mile
14 408 DARYL BLINK M 29 COVINGTON LA 5K 2 00:25:50 00:25:32 08:13 min/mile
15 379 MARK SMITH M 55 MADISONVILLE LA 5K 4 00:25:52 00:25:50 08:19 min/mile
16 430 RANCY TAYLOR M 16 SLIDELL LA 5K 3 00:26:37 00:26:09 08:25 min/mile
17 397 BRITTANY DINH F 48 COVINGTON LA 5K 1 00:26:16 00:26:11 08:26 min/mile
18 428 NANCY GONZALES F 49 NEW ORLEANS LA 5K 2 00:26:43 00:26:12 08:26 min/mile
19 400 STEPHEN SABRIO M 38 CHICAGO IL 5K 3 00:26:34 00:26:16 08:28 min/mile
20 323 KELSEY BOHN F 27 HARLINGEN TX 5K 1 00:27:14 00:27:10 08:45 min/mile
21 364 DAVID MURPHY M 57 CHARLOTTE NC 5K 5 00:27:41 00:27:11 08:45 min/mile
22 300 JOSHUA BARONE M 38 KENNER LA 5K 4 00:28:08 00:27:38 08:54 min/mile
23 309 JOSEPH MARIANDE M 45 KENNER LA 5K 3 00:27:44 00:27:40 08:55 min/mile
24 365 JULIE MURPHY F 54 CHARLOTTE NC 5K 1 00:28:24 00:27:53 08:59 min/mile
25 395 CARL LEBOUEF M 59 COVINGTON LA 5K 6 00:29:06 00:28:59 09:20 min/mile
26 409 MARTIN FOWELL M 43 CHICAGO IL 5K 4 00:29:30 00:29:12 09:24 min/mile
27 325 FRANK BORNE M 48 MARRERO LA 5K 5 00:29:42 00:29:13 09:25 min/mile
28 324 TROY BOHN M 51 GRETNA LA 5K 7 00:29:30 00:29:26 09:29 min/mile
29 424 MORRISON PARKER M 16 CHICO CA 5K 4 00:29:47 00:29:33 09:31 min/mile
30 418 ASHLEE LEPPERT F 33 NEW ORLEANS LA 5K 1 00:29:55 00:29:50 09:37 min/mile
31 404 KARSYN ECKLAND F 13 PONCHATOULA LA 5K 1 00:30:21 00:30:16 09:45 min/mile
32 314 DAVID SABRIO M 67 METAIRIE LA 5K 1 00:30:33 00:30:18 09:46 min/mile
33 222 JONATHAN BRIDGES M 36 WATERLOO IA 5K 5 00:30:37 00:30:20 09:46 min/mile
34 239 JESSICA KNOCK F 42 WATERLOO IA 5K 3 00:30:38 00:30:21 09:47 min/mile
35 399 DEBI PETROLIA F 46 HAMMOND LA 5K 4 00:30:51 00:30:33 09:50 min/mile
36 81 PRIYANKA NONE F 31 AUSTIN TX 5K 2 00:31:24 00:30:44 09:54 min/mile
37 86 SUNIL RATHORE M 32 TEMPLE TX 5K 6 00:31:25 00:30:45 09:54 min/mile
38 307 TIMMY LABAT M 34 METAIRIE LA 5K 7 00:31:38 00:31:31 10:09 min/mile
39 369 ALLEN ROBERTSON M 55 HOUMA LA 5K 8 00:31:57 00:31:40 10:12 min/mile
40 423 JANEL MUMME F 58 ST BERNARD LA 5K 2 00:32:17 00:32:03 10:20 min/mile
41 315 SUSAN SABRIO F 68 METAIRIE LA 5K 1 00:32:32 00:32:16 10:24 min/mile
42 389 ED LEE M 65 KENNER LA 5K 2 00:32:28 00:32:19 10:25 min/mile
43 357 DICKIE LONGO M 81 METAIRIE LA 5K 1 00:32:33 00:32:26 10:27 min/mile
44 345 BETH JONES F 30 LAKE CHARLES LA 5K 3 00:33:14 00:32:47 10:34 min/mile
45 411 TREY JONES M 32 LAKE CHARLES LA 5K 8 00:33:15 00:32:48 10:34 min/mile
46 421 MICHAEL LOVAS F 49 NEW ORLEANS LA 5K 5 00:33:38 00:33:08 10:40 min/mile
47 381 STEVEN STRICKER M 24 SCHERTZ TX 5K 5 00:33:53 00:33:34 10:49 min/mile
48 380 NICHOLE STRICKER F 23 SCHERTZ TX 5K 1 00:33:54 00:33:35 10:49 min/mile
49 336 MARK GONZALEZ M 56 SLIDELL LA 5K 9 00:34:04 00:33:36 10:50 min/mile
50 346 BEN KIRKLAND M 57 MOORESVILLE NC 5K 10 00:34:27 00:33:41 10:51 min/mile
98 entrants …

Winners

Tip: Slide the results table left and right to view more.
Overall
Div Place Bib Name Gender Age City State Division Age Place Gun Elapsed Chip Elapsed Pace
1 412 DALE THOMAS M 55 TAYLOR AL 5K O/A 00:21:13 00:21:11 06:50 min/mile
7 410 KATHRYN HALLER F 28 GOLDEN CO 5K O/A 00:22:50 00:22:46 07:20 min/mile
1 - 14
Div Place Bib Name Gender Age City State Division Age Place Gun Elapsed Chip Elapsed Pace
8 406 PATRICK ALLEMAN M 14 THIBODAUX LA 5K 1 00:23:09 00:23:09 07:28 min/mile
53 415 CALEB SCOTT M 12 NEW ORLEANS LA 5K 2 00:34:46 00:34:20 11:04 min/mile
31 404 KARSYN ECKLAND F 13 PONCHATOULA LA 5K 1 00:30:20 00:30:15 09:45 min/mile
93 353 DREW LAUGHLIN F 11 MARRERO LA 5K 2 00:55:27 00:55:07 17:46 min/mile
15 - 24
Div Place Bib Name Gender Age City State Division Age Place Gun Elapsed Chip Elapsed Pace
4 382 IAN TABLAN M 16 HARVEY LA 5K 1 00:22:10 00:22:06 07:07 min/mile
12 429 CHRIS GRIMWOOD M 16 NEW ORLEANS LA 5K 2 00:25:40 00:24:56 08:02 min/mile
48 380 NICHOLE STRICKER F 23 SCHERTZ TX 5K 1 00:33:53 00:33:34 10:49 min/mile
55 425 EMILY LEWIS F 16 KENNER LA 5K 2 00:34:41 00:34:34 11:09 min/mile
25 - 29
Div Place Bib Name Gender Age City State Division Age Place Gun Elapsed Chip Elapsed Pace
2 407 CHARLES TALLEY M 29 GOLDEN CO 5K 1 00:21:35 00:21:31 06:56 min/mile
14 408 DARYL BLINK M 29 COVINGTON LA 5K 2 00:25:49 00:25:31 08:13 min/mile
20 323 KELSEY BOHN F 27 HARLINGEN TX 5K 1 00:27:13 00:27:09 08:45 min/mile
75 328 AMANDA CADENAS F 27 HARLINGEN TX 5K 2 00:45:23 00:45:13 14:35 min/mile
30 - 39
Div Place Bib Name Gender Age City State Division Age Place Gun Elapsed Chip Elapsed Pace
9 349 NICHOLAS KOHRS M 34 NEW ORLEANS LA 5K 1 00:23:18 00:23:13 07:29 min/mile
13 362 KYLE MCCLURE M 35 NEW ORLEANS LA 5K 2 00:25:18 00:25:12 08:07 min/mile
30 418 ASHLEE LEPPERT F 33 NEW ORLEANS LA 5K 1 00:29:54 00:29:49 09:37 min/mile
36 81 PRIYANKA NONE F 31 AUSTIN TX 5K 2 00:31:23 00:30:43 09:54 min/mile
40 - 49
Div Place Bib Name Gender Age City State Division Age Place Gun Elapsed Chip Elapsed Pace
3 417 TOMMY GUIDROZ M 42 GRETNA LA 5K 1 00:21:49 00:21:46 07:01 min/mile
10 419 HENRY GUSTE M 42 YYYNY AB 5K 2 00:23:56 00:23:26 07:33 min/mile
17 397 BRITTANY DINH F 48 COVINGTON LA 5K 1 00:26:15 00:26:10 08:26 min/mile
18 428 NANCY GONZALES F 49 NEW ORLEANS LA 5K 2 00:26:42 00:26:11 08:26 min/mile
50 - 59
Div Place Bib Name Gender Age City State Division Age Place Gun Elapsed Chip Elapsed Pace
5 405 RAYLAN ALLEMAN M 50 THIBODAUX LA 5K 1 00:22:10 00:22:09 07:08 min/mile
6 319 DOUGLAS ARENA M 55 CHALMETTE LA 5K 2 00:22:20 00:22:19 07:11 min/mile
24 365 JULIE MURPHY F 54 CHARLOTTE NC 5K 1 00:28:23 00:27:52 08:59 min/mile
40 423 JANEL MUMME F 58 ST BERNARD LA 5K 2 00:32:16 00:32:02 10:20 min/mile
60 - 69
Div Place Bib Name Gender Age City State Division Age Place Gun Elapsed Chip Elapsed Pace
32 314 DAVID SABRIO M 67 METAIRIE LA 5K 1 00:30:32 00:30:17 09:46 min/mile
42 389 ED LEE M 65 KENNER LA 5K 2 00:32:27 00:32:18 10:25 min/mile
41 315 SUSAN SABRIO F 68 METAIRIE LA 5K 1 00:32:31 00:32:15 10:24 min/mile
58 333 MARCIA FINKELSTEIN F 67 NEW ORLEANS LA 5K 2 00:35:17 00:35:04 11:18 min/mile
70 - 90
Div Place Bib Name Gender Age City State Division Age Place Gun Elapsed Chip Elapsed Pace
43 357 DICKIE LONGO M 81 METAIRIE LA 5K 1 00:32:32 00:32:25 10:27 min/mile
60 371 ALFRED ROME M 81 PONCHATOULA LA 5K 2 00:36:22 00:35:39 11:30 min/mile

Race Info

Participants:
234
Last Updated:
1/4/2019 8:56:31 PM
BENEFITING ROTARY CLUB OF KENNER

Tip: Swipe the results table to view more.

Search for Name, Bib, City, State or Team
in the field above… by clicking the icon below…

Notes & Race Statistics

5K - 97


Male
Total Finishers Avg Pace
51 10:43

Female
Total Finishers Avg Pace
46 12:58

10K - 50


Male
Total Finishers Avg Pace
24 09:47

Female
Total Finishers Avg Pace
26 11:25

10 MILE - 78


Male
Total Finishers Avg Pace
43 09:27

Female
Total Finishers Avg Pace
35 10:10

5K WALK - 2


Male
Total Finishers Avg Pace
2 12:45

Female
Total Finishers Avg Pace
0 00:00

10 MILE WALK - 3


Male
Total Finishers Avg Pace
2 13:56

Female
Total Finishers Avg Pace
1 13:32
Timed using RM Timing Systems
Take control of your event
A product of US Sports Timing

Have a question or need to make a correction?

Submit a Result Correction